TITAN 3C TRANSTAGE DEB, 1653

Orbit data source: Space-Track

TITAN 3C TRANSTAGE DEB, 1653 is space debris in LEO originally from a launch on Fri, 15 Oct 1965 UTC launched from the Air Force Eastern Test Range (AFETR). Debris objects in space refer to the collection of defunct objects orbiting the Earth. Examples of debris include non-operational satellites, rocket bodies, and fragments generated from explosions, collisions, or faulty payload assembly.

Loading next visibility...
Identifier
1653, 1965-082Q
Orbit
LEO
Country
Flag of USUS
Related business
Manufacturer
Unknown
Mission
Spacecraft
Bus & Motor
Unknown
Mass
Unknown
Launch date (UTC)
1965-10-15 (60 years ago)
Launch vehicle
Unknown
Launch site
Air Force Eastern Test Range (AFETR)
Object type
Payload
Rocket body
Debris
Shape & HBR
Unknown shape, 0.6 m
Radar Cross Section
Medium (>0.1 m² and <1 m²)

Expand to show TLE details & history
Last TLE update: 20 hours ago

TLE from 20 hours ago
0 TITAN 3C TRANSTAGE DEB
1  1653U 65082Q   25306.49171027  .00000648  00000-0  11236-3 0  9997
2  1653  32.1190  69.7473 0040798 163.2781 196.9218 14.64130885178254
Epoch: 2025-11-02T11:48Z
TLE epoch observation values (Epoch: 2025-11-02T11:48:03.767Z)
Latitude
Longitude
-149.27506°
Altitude
706.066 km
Speed
7.49 km/s
True Right ascension
04h 38m 59s
True Declination
0° 00' 00"
Sunlit
Object was in full shadow at epoch
Visualization orbit readout
Latitude
Unknown
Longitude
Unknown
Altitude
Unknown
Speed
Unknown
Apparent Right ascension
Unknown
Apparent Declination
Unknown
Sunlit
N/A
Visualization observer readout
Local Sidereal Time
03:33:39
Azimuth
Unknown
Elevation
Unknown
Doppler factor
Unknown
Orbital elements
Apogee altitude
712.277 km
Perigee altitude
654.657 km
Semi-major axis
7,061.604 km
Eccentricity
0.00408
Inclination
32.119°
RAAN
69.7473°
Arg. of periapsis
163.2781°
True anomaly
196.78638°
Mean anomaly
196.9218°
Eccentric anomaly
196.85403°
Mean motion
3.65753 °/min
Orbital period
98.43 mins
BSTAR
0.00011236

Documentation

Showing up to 5 results
|